Waarnemingen

Advertentie
Mijn weer
Antwerpen, België (6450): temperatuur & dauwpunt: 30.05.2020 16:00:00 - 05.06.2020 16:00:00 (CEST)Antwerpen, België (6450): windsnelheid & windstoten: 30.05.2020 16:00:00 - 05.06.2020 16:00:00 (CEST)Antwerpen, België (6450): windrichting: 30.05.2020 16:00:00 - 05.06.2020 16:00:00 (CEST)Antwerpen, België (6450): luchtdruk: 30.05.2020 16:00:00 - 05.06.2020 16:00:00 (CEST)Antwerpen, België (6450): zicht: 30.05.2020 16:00:00 - 05.06.2020 16:00:00 (CEST)
Datum & Tijd tt [°C] td [°C] ff [km/u] ff [kn] fx [km/u] fx [kn] dd ppp [hPa] vv [km]
05.06.2020 16:00:00 11,0 8,0 28 15 - - WNW - 10
05.06.2020 15:00:00 14,1 6,3 28 15 50 27 W 992,7 10
05.06.2020 14:00:00 13,8 7,3 26 14 - - W 992,5 10
05.06.2020 13:00:00 12,1 10,1 15 8 32 18 ZZW 992,5 10
05.06.2020 12:00:00 9,3 8,1 21 11 50 27 W 993,2 3,0
05.06.2020 11:00:00 12,5 9,7 26 14 - - ZZW 992,9 10
05.06.2020 10:00:00 13,2 8,8 22 12 40 21 ZZW 993,7 10
05.06.2020 09:00:00 12,0 8,9 18 10 32 18 ZZW 994,6 10
05.06.2020 08:00:00 11,7 8,6 15 8 - - ZZW 995,4 10
05.06.2020 07:00:00 11,0 7,6 13 7 18 10 ZZW 996,2 10
05.06.2020 06:00:00 10,3 7,8 8 4 14 8 Z 997,1 10
05.06.2020 05:00:00 10,2 8,1 8 4 - - Z 997,7 10
05.06.2020 04:00:00 10,4 7,7 9 5 14 8 ZW 998,5 10
05.06.2020 03:00:00 10,4 7,9 9 5 14 8 ZW 999,0 10
05.06.2020 02:00:00 9,8 7,9 8 4 - - ZW 999,3 10
05.06.2020 01:00:00 10,4 7,4 15 8 25 14 W 999,8 10
05.06.2020 00:00:00 11,8 5,7 16 9 29 16 W 1000,0 10
04.06.2020 23:00:00 11,9 6,1 16 9 - - WNW 1000,1 10
04.06.2020 22:00:00 12,4 4,8 22 12 36 19 NW 999,8 10
04.06.2020 21:00:00 12,6 6,6 22 12 36 19 NW 999,5 10
04.06.2020 20:00:00 13,0 6,7 22 12 - - NW 999,2 10
04.06.2020 19:00:00 12,5 7,4 29 16 43 23 NW 999,0 10
04.06.2020 18:00:00 15,2 8,2 28 15 43 23 NW 998,6 10
04.06.2020 17:00:00 14,7 7,6 28 15 - - NW 998,8 10
04.06.2020 16:00:00 14,2 9,2 22 12 40 21 NNW 998,8 10
04.06.2020 15:00:00 14,0 9,4 24 13 43 23 NNW 998,8 10
04.06.2020 14:00:00 15,7 9,7 24 13 - - NW 998,8 10
04.06.2020 13:00:00 15,2 9,6 21 11 29 16 NW 998,8 10
04.06.2020 12:00:00 15,3 9,6 18 10 29 16 NNW 998,9 10
04.06.2020 11:00:00 14,3 10,9 9 5 - - N 999,0 10
04.06.2020 10:00:00 13,2 10,2 21 11 29 16 NNW 999,3 10
04.06.2020 09:00:00 12,9 10,9 18 10 29 16 NNW 999,4 7
04.06.2020 08:00:00 14,1 10,0 18 10 - - NNW 999,1 10
04.06.2020 07:00:00 14,1 10,6 15 8 25 14 N 999,4 10
04.06.2020 06:00:00 14,1 10,8 13 7 22 12 NNW 999,8 10
04.06.2020 05:00:00 14,0 11,0 11 6 - - N 1000,0 10
04.06.2020 04:00:00 14,1 11,1 13 7 22 12 N 1000,4 10
04.06.2020 03:00:00 14,3 11,3 15 8 25 14 NNW 1001,0 10
04.06.2020 02:00:00 14,3 11,5 16 9 - - N 1001,3 10
04.06.2020 01:00:00 14,4 11,6 18 10 25 14 NNW 1002,0 10
04.06.2020 00:00:00 14,6 11,5 16 9 29 16 NNW 1002,7 10
03.06.2020 23:00:00 15,7 12,5 15 8 - - NNW 1002,9 10
03.06.2020 22:00:00 17,1 10,6 16 9 25 14 NNW 1003,1 10
03.06.2020 21:00:00 18,3 9,1 22 12 29 16 NW 1003,2 40
03.06.2020 20:00:00 19,3 10,2 22 12 - - NW 1003,4 10
03.06.2020 19:00:00 19,8 11,0 22 12 32 18 NW 1003,4 10
03.06.2020 18:00:00 20,8 9,1 15 8 29 16 NNW 1003,8 10
03.06.2020 17:00:00 20,9 9,4 18 10 - - WNW 1004,3 10
03.06.2020 16:00:00 20,9 8,8 16 9 25 14 WNW 1004,8 10
03.06.2020 15:00:00 21,8 9,3 16 9 25 14 NNW 1005,3 10
03.06.2020 14:00:00 21,2 9,0 11 6 - - WNW 1005,9 10
03.06.2020 13:00:00 20,1 9,1 14 8 25 14 NW 1006,6 25
03.06.2020 12:00:00 19,6 9,8 13 7 25 14 WNW 1007,2 10
03.06.2020 11:00:00 18,1 10,5 13 7 - - WZW 1007,6 10
03.06.2020 10:00:00 17,0 11,4 11 6 22 12 W 1007,9 10
03.06.2020 09:00:00 15,0 11,2 13 7 22 12 W 1008,2 8
03.06.2020 08:00:00 14,0 11,6 9 5 - - W 1008,6 4,5
03.06.2020 07:00:00 13,2 11,8 11 6 18 10 W 1008,9 2,7
03.06.2020 06:00:00 13,0 12,0 9 5 14 8 W 1009,1 2,7
03.06.2020 05:00:00 13,5 12,0 9 5 - - W 1009,5 3,6
03.06.2020 04:00:00 13,9 11,8 8 4 11 6 W 1010,2 6
03.06.2020 03:00:00 14,8 12,2 5 3 14 8 WZW 1010,8 9
03.06.2020 02:00:00 15,6 12,0 11 6 - - W 1011,5 10
03.06.2020 01:00:00 16,6 11,1 11 6 18 10 WNW 1012,0 10
03.06.2020 00:00:00 17,6 10,2 11 6 18 10 WNW 1012,8 10
02.06.2020 23:00:00 18,5 9,8 13 7 - - NW 1013,3 10
02.06.2020 22:00:00 19,5 10,3 8 4 29 16 NW 1013,5 10
02.06.2020 21:00:00 20,8 9,1 21 11 29 16 NW 1013,7 10
02.06.2020 20:00:00 22,5 7,1 22 12 - - NW 1014,0 10
02.06.2020 19:00:00 24,5 7,6 16 9 32 18 NW 1014,3 10
02.06.2020 18:00:00 24,8 6,8 24 13 36 19 NW 1014,8 10
02.06.2020 17:00:00 26,2 5,4 18 10 - - NNW 1015,2 10
02.06.2020 16:00:00 26,8 6,3 16 9 29 16 NNW 1015,8 10
02.06.2020 15:00:00 26,4 6,4 15 8 29 16 NW 1016,3 10
02.06.2020 14:00:00 26,5 6,7 11 6 - - NW 1016,8 10
02.06.2020 13:00:00 26,1 5,4 5 3 18 10 - 1017,4 10
02.06.2020 12:00:00 24,7 4,4 9 5 22 12 WNW 1017,9 10
02.06.2020 11:00:00 24,3 5,3 11 6 - - NNW 1018,3 10
02.06.2020 10:00:00 23,2 7,5 9 5 14 8 NNW 1018,6 10
02.06.2020 09:00:00 20,8 10,8 4 2 4 2 - 1018,8 35
02.06.2020 08:00:00 18,1 10,3 2 1 - - - 1018,9 10
02.06.2020 07:00:00 13,9 9,3 2 1 4 2 - 1019,2 10
02.06.2020 06:00:00 11,9 8,0 2 1 4 2 - 1019,0 10
02.06.2020 05:00:00 15,2 8,6 2 1 - - N 1019,0 10
02.06.2020 04:00:00 15,9 8,6 4 2 7 4 - 1019,3 10
02.06.2020 03:00:00 16,3 8,3 4 2 7 4 - 1019,6 10
02.06.2020 02:00:00 17,1 7,7 5 3 - - NNO 1020,1 10
02.06.2020 01:00:00 18,3 6,4 8 4 14 8 NNO 1020,2 10
02.06.2020 00:00:00 18,9 7,5 9 5 14 8 NNO 1020,3 10
01.06.2020 23:00:00 20,0 6,5 9 5 - - NO 1020,2 10
01.06.2020 22:00:00 20,6 6,4 13 7 22 12 NNO 1020,0 10
01.06.2020 21:00:00 22,4 7,3 11 6 22 12 NNO 1019,5 10
01.06.2020 20:00:00 24,4 6,6 16 9 - - NO 1019,4 10
01.06.2020 19:00:00 25,9 6,0 11 6 25 14 ONO 1019,7 10
01.06.2020 18:00:00 26,1 6,1 11 6 25 14 ONO 1020,0 10
01.06.2020 17:00:00 25,5 7,1 5 3 - - - 1020,2 10
01.06.2020 16:00:00 25,5 7,2 13 7 32 18 NO 1020,7 10
01.06.2020 15:00:00 24,8 7,4 15 8 29 16 ONO 1021,0 10
01.06.2020 14:00:00 24,5 7,0 13 7 - - O 1021,3 10
01.06.2020 13:00:00 23,9 7,5 13 7 32 18 ONO 1021,8 10
01.06.2020 12:00:00 23,0 7,7 18 10 29 16 ONO 1022,1 10
01.06.2020 11:00:00 21,6 7,5 18 10 - - O 1022,4 10
01.06.2020 10:00:00 19,9 8,5 13 7 22 12 O 1022,7 10
01.06.2020 09:00:00 17,3 8,2 13 7 18 10 O 1022,6 10
01.06.2020 08:00:00 15,2 8,2 11 6 - - O 1022,6 10
01.06.2020 07:00:00 13,0 7,0 8 4 14 8 ONO 1022,5 10
01.06.2020 06:00:00 12,4 6,4 5 3 7 4 ONO 1022,3 10
01.06.2020 05:00:00 12,4 6,1 5 3 - - O 1022,2 10
01.06.2020 04:00:00 12,4 6,1 5 3 11 6 O 1022,3 10
01.06.2020 03:00:00 13,6 5,4 8 4 11 6 ONO 1022,3 10
01.06.2020 02:00:00 14,7 6,1 8 4 - - ONO 1022,2 10
01.06.2020 01:00:00 15,7 5,6 8 4 14 8 ONO 1022,3 10
01.06.2020 00:00:00 16,6 5,7 9 5 14 8 ONO 1022,3 10
31.05.2020 23:00:00 17,8 5,0 9 5 - - ONO 1022,0 10
31.05.2020 22:00:00 19,2 5,0 13 7 25 14 ONO 1021,7 10
31.05.2020 21:00:00 20,2 5,3 15 8 29 16 ONO 1021,2 10
31.05.2020 20:00:00 21,2 4,5 18 10 - - O 1021,0 10
31.05.2020 19:00:00 21,6 4,5 21 11 32 18 ONO 1020,8 10
31.05.2020 18:00:00 22,4 3,8 18 10 36 19 ONO 1021,0 10
31.05.2020 17:00:00 22,2 3,0 16 9 - - O 1021,4 10
31.05.2020 16:00:00 21,9 2,3 21 11 32 18 ONO 1021,7 10
31.05.2020 15:00:00 21,1 2,4 21 11 40 21 O 1021,9 10
31.05.2020 14:00:00 20,9 1,8 21 11 - - NO 1022,4 10
31.05.2020 13:00:00 20,1 2,2 18 10 36 19 ONO 1022,6 10
31.05.2020 12:00:00 20,4 4,7 21 11 40 21 ONO 1022,8 10
31.05.2020 11:00:00 19,7 4,5 22 12 - - O 1023,1 10
31.05.2020 10:00:00 18,4 5,3 21 11 25 14 ONO 1023,2 10
31.05.2020 09:00:00 16,8 5,7 16 9 22 12 ONO 1023,2 10
31.05.2020 08:00:00 15,1 5,1 13 7 - - ONO 1023,2 10
31.05.2020 07:00:00 13,3 5,5 9 5 14 8 O 1023,0 10
31.05.2020 06:00:00 11,6 4,2 5 3 11 6 ONO 1022,8 10
31.05.2020 05:00:00 11,8 3,5 8 4 - - ONO 1022,6 10
31.05.2020 04:00:00 12,0 4,1 9 5 18 10 ONO 1022,6 10
31.05.2020 03:00:00 14,2 4,4 9 5 11 6 ONO 1022,5 10
31.05.2020 02:00:00 14,0 4,4 7 4 - - ONO 1022,4 50
31.05.2020 01:00:00 15,8 4,3 9 5 18 10 O 1022,5 10
31.05.2020 00:00:00 17,4 3,9 11 6 22 12 O 1022,1 10
30.05.2020 23:00:00 18,5 4,2 8 4 - - ONO 1021,8 10
30.05.2020 22:00:00 20,1 3,8 11 6 22 12 ONO 1021,2 10
30.05.2020 21:00:00 22,0 3,6 15 8 25 14 ONO 1020,8 10
30.05.2020 20:00:00 22,9 3,5 18 10 - - ONO 1020,7 10
30.05.2020 19:00:00 23,5 3,1 16 9 32 18 O 1020,9 10
30.05.2020 18:00:00 24,2 3,9 13 7 32 18 O 1021,3 10
30.05.2020 17:00:00 24,2 3,5 15 8 - - ONO 1021,6 10
30.05.2020 16:00:00 23,5 3,2 16 9 36 19 ONO 1022,1 10

tt = temperatuur
td = dauwpunt
ff = windsnelheid
fx = windstoten
dd = windrichting
ppp = luchtdruk
vv = zicht

Weerstations in de omgeving